Voltar ao catálogo

THORAD DELTA 1 DEB

AtivoLEO
NORAD 14879·DEBRIS·🇺🇸 United States

Lançado Nov 15, 1974 de Vandenberg Space Force Base

Loading…

Próximas Passagens (próximas 24 horas)

TLE

AtualizadoSource: Space-Track

Época: Sep 14, 2026, 14:13 UTC

1 14879U 74089ES  26257.59257038 -.00000104  00000-0 -61546-3 0  9990
2 14879 101.2814 168.7959 0213461 278.6850 203.2510 12.15625187568141

Acompanhe THORAD DELTA 1 DEB em tempo real com AllMySat

Download on the App Store